Regional Weather Roundup
Issued by NWS Raleigh/Durham, NC

Home | Current Version | Previous Version | Text Only | Print | Product List | Glossary On
Versions: 1 2 3 4 5 6 7 8 9 10 11 12 13 14 15 16 17 18 19 20 21 22 23 24 25 26 27 28 29 30 31 32 33 34 35 36 37 38 39 40 41 42 43 44 45 46 47 48 49 50
000
ASUS42 KRAH 041610
RWRRAH
NORTH CAROLINA WEATHER ROUNDUP
NATIONAL WEATHER SERVICE RALEIGH NC
1100 AM EST WED MAR 04 2015

NOTE: "FAIR" INDICATES FEW OR NO CLOUDS BELOW 12,000 FEET WITH NO
SIGNIFICANT WEATHER AND/OR OBSTRUCTIONS TO VISIBILITY.

NCZ001-053-055-056-065-067-041700-
WESTERN NORTH CAROLINA

CITY           SKY/WX    TMP DP  RH WIND       PRES   REMARKS
ASHEVILLE      SUNNY     72  53  51 S10       29.95F
JEFFERSON      PTSUNNY   66  48  52 SW8G16    29.92F
MORGANTON        N/A     64  57  79 NE3       29.95F
HICKORY        PTSUNNY   62  56  80 S8        29.93F
RUTHERFORDTON  NOT AVBL
MOUNT AIRY     NOT AVBL
BOONE          MOSUNNY   64  50  60 S6G18     29.94F
$$

NCZ021-022-025-041-071-084-088-041700-
CENTRAL NORTH CAROLINA

CITY           SKY/WX    TMP DP  RH WIND       PRES   REMARKS
CHARLOTTE      DRIZZLE   55  53  93 SW14      30.01F FOG
GREENSBORO     PTSUNNY   61  57  87 SW17      29.94F
WINSTON-SALEM  PTSUNNY   64  56  75 SW12      29.94F
RALEIGH-DURHAM FOG       54  52  93 SW16      30.01F VSB 1/2
FORT BRAGG     NOT AVBL
FAYETTEVILLE   CLOUDY    60  58  92 SW10      30.03F
BURLINGTON     MOSUNNY   61  54  77 SW14G28   29.96S
LAURINBURG     PTSUNNY  N/A N/A N/A SW13      30.05S
$$

NCZ011-015-027-028-043-044-047-080-103-041700-
NORTHEASTERN NORTH CAROLINA

CITY           SKY/WX    TMP DP  RH WIND       PRES   REMARKS
ROCKY MT-WILSO CLOUDY    52  52 100 S10       30.02F FOG
GREENVILLE     NOT AVBL
WASHINGTON     SUNNY     69  62  78 W13G21    30.02S
ELIZABETH CITY CLOUDY    60  58  92 SW17G24   30.01R
MANTEO         MOSUNNY   61  57  88 SW7       30.02S
CAPE HATTERAS  FOG       56  56 100 SW12      30.05F VSB 1/4
$$

NCZ078-087-090-091-093-098-101-041700-
SOUTHEASTERN NORTH CAROLINA

CITY           SKY/WX    TMP DP  RH WIND       PRES   REMARKS
LUMBERTON      MOSUNNY   71  63  75 SW15G21   30.03F
GOLDSBORO      NOT AVBL
KENANSVILLE    SUNNY     72  62  69 SW7G16    30.04F
NEW BERN       SUNNY     78  62  57 SW13G26   30.03F
CHERRY POINT   MOSUNNY   71  63  75 SW16G26   30.05F
BEAUFORT       NOT AVBL
JACKSONVILLE   SUNNY     75  63  66 SW13G25   30.04F
WILMINGTON     PTSUNNY   72  65  78 SW15G31   30.07F
$$




USA.gov is the U.S. government's official web portal to all federal, state and local government web resources and services.